Location: ??
(35.5653°N, 139.6194°E)
Time: 17:06:12
(UTC+00:00)

SL-4 R/B - Pass Details

Date: 20 November 2019
Orbit: 428 x 667 km, 51.6° (Epoch: 12 December)

Event Time Altitude Azimuth Distance (km) Brightness Sun altitude
Exits shadow 19:38:46 27° 342° (NNW) 1,277 3.6 -20.9°
Maximum altitude 19:40:54 43° 35° (NE) 939 3.3 -20.5°
Drops below altitude 10° 19:45:28 10° 107° (ESE) 2,064 6.2 -19.6°
Sets 19:47:53 0° 114° (ESE) 2,954 7.2 -19.1°
